Time,TemperatureF,DewpointF,PressureIn,WindDirection,WindDirectionDegrees,WindSpeedMPH,WindSpeedGustMPH,Humidity,HourlyPrecipIn,Conditions,Clouds,dailyrainin,SoftwareType,DateUTC
2013-03-12 00:14:00,30.3,26.0,29.97,West,276,3.0,8.0,83,0.00,,,0.02,weatherlink.com 1.10,2013-03-12 05:14:00,
2013-03-12 00:29:00,30.3,26.0,29.98,WSW,257,5.0,9.0,83,0.00,,,0.02,weatherlink.com 1.10,2013-03-12 05:29:00,
2013-03-12 00:44:00,30.3,26.0,29.97,WNW,292,3.0,5.0,84,0.00,,,0.02,weatherlink.com 1.10,2013-03-12 05:44:00,
2013-03-12 00:59:00,30.3,26.0,29.98,West,265,6.0,10.0,83,0.00,,,0.02,weatherlink.com 1.10,2013-03-12 05:59:00,
2013-03-12 01:14:00,30.3,26.0,29.99,West,277,4.0,11.0,83,0.00,,,0.02,weatherlink.com 1.10,2013-03-12 06:14:00,
2013-03-12 01:29:00,30.4,26.0,30.00,WNW,293,3.0,10.0,84,0.00,,,0.02,weatherlink.com 1.10,2013-03-12 06:29:00,
2013-03-12 01:44:00,30.3,25.0,30.00,WNW,292,5.0,12.0,79,0.00,,,0.02,weatherlink.com 1.10,2013-03-12 06:44:00,
2013-03-12 01:59:00,30.0,24.0,30.00,West,272,6.0,12.0,78,0.00,,,0.02,weatherlink.com 1.10,2013-03-12 06:59:00,
2013-03-12 02:14:00,29.4,24.0,30.01,WNW,283,8.0,13.0,79,0.00,,,0.00,weatherlink.com 1.10,2013-03-12 07:14:00,
2013-03-12 02:29:00,28.9,24.0,30.01,WNW,286,8.0,11.0,81,0.00,,,0.00,weatherlink.com 1.10,2013-03-12 07:29:00,
2013-03-12 02:44:00,28.5,24.0,30.00,WNW,286,5.0,11.0,82,0.00,,,0.00,weatherlink.com 1.10,2013-03-12 07:44:00,
2013-03-12 02:59:00,28.0,24.0,30.01,WNW,302,8.0,12.0,83,0.00,,,0.00,weatherlink.com 1.10,2013-03-12 07:59:00,
2013-03-12 03:15:00,27.7,23.0,30.01,WNW,288,8.0,11.0,83,0.00,,,0.00,weatherlink.com 1.10,2013-03-12 08:15:00,
2013-03-12 03:29:00,27.4,23.0,30.00,WNW,290,2.0,10.0,82,0.00,,,0.00,weatherlink.com 1.10,2013-03-12 08:29:00,
2013-03-12 03:44:00,27.1,22.0,30.01,West,276,3.0,9.0,82,0.00,,,0.00,weatherlink.com 1.10,2013-03-12 08:44:00,
2013-03-12 03:59:00,26.9,22.0,30.00,WNW,295,5.0,11.0,82,0.00,,,0.00,weatherlink.com 1.10,2013-03-12 08:59:00,
2013-03-12 04:14:00,26.6,22.0,30.00,West,271,4.0,10.0,84,0.00,,,0.00,weatherlink.com 1.10,2013-03-12 09:14:00,
2013-03-12 04:30:00,26.3,22.0,30.00,SW,223,4.0,9.0,85,0.00,,,0.00,weatherlink.com 1.10,2013-03-12 09:30:00,
2013-03-12 04:45:00,26.2,22.0,30.02,WNW,284,6.0,11.0,85,0.00,,,0.00,weatherlink.com 1.10,2013-03-12 09:45:00,
2013-03-12 05:00:00,26.1,22.0,30.03,WSW,249,7.0,12.0,84,0.00,,,0.00,weatherlink.com 1.10,2013-03-12 10:00:00,
2013-03-12 05:15:00,26.1,22.0,30.03,WNW,298,8.0,13.0,85,0.00,,,0.00,weatherlink.com 1.10,2013-03-12 10:15:00,
2013-03-12 05:30:00,25.9,22.0,30.03,WNW,293,5.0,10.0,85,0.00,,,0.00,weatherlink.com 1.10,2013-03-12 10:30:00,
2013-03-12 05:45:00,25.7,22.0,30.03,West,267,5.0,8.0,85,0.00,,,0.00,weatherlink.com 1.10,2013-03-12 10:45:00,
2013-03-12 06:00:00,25.6,22.0,30.03,WNW,287,4.0,9.0,86,0.00,,,0.00,weatherlink.com 1.10,2013-03-12 11:00:00,
2013-03-12 06:15:00,25.6,22.0,30.04,WSW,253,4.0,10.0,86,0.00,,,0.00,weatherlink.com 1.10,2013-03-12 11:15:00,
2013-03-12 06:30:00,25.3,22.0,30.05,West,274,4.0,8.0,86,0.00,,,0.00,weatherlink.com 1.10,2013-03-12 11:30:00,
2013-03-12 06:45:00,25.3,22.0,30.04,WNW,284,3.0,8.0,87,0.00,,,0.00,weatherlink.com 1.10,2013-03-12 11:45:00,
2013-03-12 07:00:00,25.5,22.0,30.04,West,267,6.0,8.0,87,0.00,,,0.00,weatherlink.com 1.10,2013-03-12 12:00:00,
2013-03-12 07:15:00,25.3,22.0,30.03,WSW,250,4.0,8.0,87,0.00,,,0.00,weatherlink.com 1.10,2013-03-12 12:15:00,
2013-03-12 07:30:00,25.2,22.0,30.04,WSW,257,4.0,6.0,87,0.00,,,0.00,weatherlink.com 1.10,2013-03-12 12:30:00,
2013-03-12 07:45:00,25.4,22.0,30.06,WSW,252,3.0,8.0,87,0.00,,,0.00,weatherlink.com 1.10,2013-03-12 12:45:00,
2013-03-12 08:00:00,26.0,22.0,30.05,WSW,242,4.0,10.0,86,0.00,,,0.00,weatherlink.com 1.10,2013-03-12 13:00:00,
2013-03-12 08:15:00,26.4,23.0,30.05,West,271,3.0,10.0,86,0.00,,,0.00,weatherlink.com 1.10,2013-03-12 13:15:00,
2013-03-12 08:31:00,27.3,23.0,30.08,WSW,252,4.0,11.0,84,0.00,,,0.00,weatherlink.com 1.10,2013-03-12 13:31:00,
2013-03-12 08:45:00,28.1,24.0,30.08,SW,219,1.0,12.0,83,0.00,,,0.00,weatherlink.com 1.10,2013-03-12 13:45:00,
2013-03-12 09:01:00,29.0,24.0,30.07,SW,236,5.0,10.0,81,0.00,,,0.00,weatherlink.com 1.10,2013-03-12 14:01:00,
2013-03-12 09:15:00,30.0,24.0,30.07,West,263,6.0,10.0,79,0.00,,,0.00,weatherlink.com 1.10,2013-03-12 14:15:00,
2013-03-12 09:30:00,30.8,25.0,30.07,WSW,254,5.0,11.0,78,0.00,,,0.00,weatherlink.com 1.10,2013-03-12 14:30:00,
2013-03-12 09:45:00,31.8,25.0,30.08,West,279,6.0,11.0,77,0.00,,,0.00,weatherlink.com 1.10,2013-03-12 14:45:00,
2013-03-12 10:00:00,32.7,25.0,30.07,WSW,249,6.0,11.0,72,0.00,,,0.00,weatherlink.com 1.10,2013-03-12 15:00:00,
2013-03-12 10:15:00,33.7,25.0,30.07,West,279,6.0,13.0,70,0.00,,,0.00,weatherlink.com 1.10,2013-03-12 15:15:00,
2013-03-12 10:32:00,34.8,26.0,30.08,WNW,282,6.0,14.0,69,0.00,,,0.00,weatherlink.com 1.10,2013-03-12 15:32:00,
2013-03-12 10:45:00,35.3,26.0,30.09,WSW,254,6.0,14.0,68,0.00,,,0.00,weatherlink.com 1.10,2013-03-12 15:45:00,
2013-03-12 11:00:00,35.7,25.0,30.09,West,275,6.0,14.0,66,0.00,,,0.00,weatherlink.com 1.10,2013-03-12 16:00:00,
2013-03-12 11:15:00,36.5,26.0,30.09,West,276,5.0,15.0,65,0.00,,,0.00,weatherlink.com 1.10,2013-03-12 16:15:00,
2013-03-12 11:31:00,37.1,27.0,30.09,West,280,5.0,13.0,66,0.00,,,0.00,weatherlink.com 1.10,2013-03-12 16:31:00,
2013-03-12 11:46:00,37.7,26.0,30.08,WNW,292,9.0,12.0,62,0.00,,,0.00,weatherlink.com 1.10,2013-03-12 16:46:00,
2013-03-12 12:01:00,38.3,27.0,30.09,NW,315,4.0,12.0,63,0.00,,,0.00,weatherlink.com 1.10,2013-03-12 17:01:00,
2013-03-12 12:16:00,38.8,27.0,30.09,NW,309,8.0,11.0,64,0.00,,,0.00,weatherlink.com 1.10,2013-03-12 17:16:00,
2013-03-12 12:31:00,39.6,28.0,30.08,SW,217,7.0,14.0,63,0.00,,,0.00,weatherlink.com 1.10,2013-03-12 17:31:00,
2013-03-12 12:46:00,40.5,27.0,30.08,West,267,8.0,14.0,60,0.00,,,0.00,weatherlink.com 1.10,2013-03-12 17:46:00,
2013-03-12 13:01:00,41.2,29.0,30.08,WNW,284,4.0,14.0,61,0.00,,,0.00,weatherlink.com 1.10,2013-03-12 18:01:00,
2013-03-12 13:46:00,38.6,28.0,30.08,WNW,282,8.0,18.0,66,0.00,,,0.00,weatherlink.com 1.10,2013-03-12 18:46:00,
2013-03-12 14:16:00,37.8,28.0,30.08,West,275,6.0,19.0,68,0.00,,,0.00,weatherlink.com 1.10,2013-03-12 19:16:00,
2013-03-12 14:31:00,36.0,29.0,30.09,WNW,284,14.0,22.0,76,0.00,,,0.00,weatherlink.com 1.10,2013-03-12 19:31:00,
2013-03-12 16:01:00,37.0,29.0,30.09,WNW,295,15.0,22.0,73,0.00,,,0.00,weatherlink.com 1.10,2013-03-12 21:01:00,
2013-03-12 16:31:00,38.0,26.0,30.09,West,274,11.0,24.0,62,0.00,,,0.00,weatherlink.com 1.10,2013-03-12 21:31:00,
2013-03-12 16:46:00,37.4,26.0,30.09,West,272,11.0,19.0,64,0.00,,,0.00,weatherlink.com 1.10,2013-03-12 21:46:00,
2013-03-12 17:48:00,36.1,26.0,30.11,WNW,288,8.0,17.0,67,0.00,,,0.00,weatherlink.com 1.10,2013-03-12 22:48:00,
2013-03-12 18:16:00,34.9,27.0,30.11,West,269,11.0,19.0,73,0.00,,,0.00,weatherlink.com 1.10,2013-03-12 23:16:00,
2013-03-12 18:31:00,35.0,28.0,30.11,WNW,302,13.0,19.0,74,0.00,,,0.00,weatherlink.com 1.10,2013-03-12 23:31:00,
2013-03-12 18:46:00,33.8,28.0,30.12,West,280,12.0,16.0,78,0.00,,,0.00,weatherlink.com 1.10,2013-03-12 23:46:00,
2013-03-12 19:01:00,33.8,28.0,30.12,WNW,289,8.0,16.0,78,0.00,,,0.00,weatherlink.com 1.10,2013-03-13 00:01:00,
2013-03-12 19:16:00,33.5,27.0,30.13,NW,315,4.0,20.0,78,0.00,,,0.00,weatherlink.com 1.10,2013-03-13 00:16:00,
2013-03-12 20:01:00,32.8,26.0,30.14,WNW,290,17.0,21.0,75,0.00,,,0.00,weatherlink.com 1.10,2013-03-13 01:01:00,
2013-03-12 20:16:00,31.5,27.0,30.16,WNW,303,19.0,27.0,83,0.00,,,0.00,weatherlink.com 1.10,2013-03-13 01:16:00,
2013-03-12 20:31:00,29.3,27.0,30.16,NNW,337,11.0,20.0,90,0.00,,,0.00,weatherlink.com 1.10,2013-03-13 01:31:00,
2013-03-12 20:46:00,29.4,27.0,30.17,WNW,287,11.0,26.0,89,0.00,,,0.00,weatherlink.com 1.10,2013-03-13 01:46:00,
2013-03-12 21:01:00,29.7,23.0,30.17,NNW,339,13.0,27.0,75,0.00,,,0.00,weatherlink.com 1.10,2013-03-13 02:01:00,
2013-03-12 21:16:00,29.5,23.0,30.18,West,265,12.0,26.0,75,0.00,,,0.00,weatherlink.com 1.10,2013-03-13 02:16:00,
2013-03-12 21:31:00,29.1,22.0,30.18,WNW,296,14.0,21.0,74,0.00,,,0.00,weatherlink.com 1.10,2013-03-13 02:31:00,
2013-03-12 22:01:00,28.5,22.0,30.19,NW,321,11.0,18.0,76,0.00,,,0.00,weatherlink.com 1.10,2013-03-13 03:01:00,
2013-03-12 22:16:00,28.3,21.0,30.20,WNW,291,5.0,22.0,74,0.00,,,0.00,weatherlink.com 1.10,2013-03-13 03:16:00,
2013-03-12 22:31:00,28.3,21.0,30.20,WNW,295,9.0,20.0,73,0.00,,,0.00,weatherlink.com 1.10,2013-03-13 03:31:00,
2013-03-12 22:47:00,27.9,21.0,30.21,WNW,288,12.0,23.0,74,0.00,,,0.00,weatherlink.com 1.10,2013-03-13 03:47:00,
2013-03-12 23:02:00,27.1,21.0,30.21,West,274,7.0,22.0,78,0.00,,,0.00,weatherlink.com 1.10,2013-03-13 04:02:00,
2013-03-12 23:17:00,27.2,20.0,30.21,WNW,292,16.0,19.0,73,0.00,,,0.00,weatherlink.com 1.10,2013-03-13 04:17:00,
2013-03-12 23:32:00,27.1,20.0,30.21,West,279,14.0,20.0,74,0.00,,,0.00,weatherlink.com 1.10,2013-03-13 04:32:00,
2013-03-12 23:47:00,26.9,20.0,30.22,WNW,294,10.0,22.0,74,0.00,,,0.00,weatherlink.com 1.10,2013-03-13 04:47:00,